Location: Unspecified
(43.4354°N, 0.0000°E)
Time: 08:26:45
(UTC+00:00)

A-11 Canister half - Pass Details

Date: 29 June 2019
Orbit: 1514 x 1686 km, 47.2° (Epoch: 24 July)

Event Time Altitude Azimuth Distance (km) Brightness Sun altitude
Rises 15:01:39 0° 295° (WNW) 4,832 12.1 48.3°
Reaches altitude 10° 15:04:54 10° 291° (WNW) 3,820 11.8 47.7°
Maximum altitude 15:14:05 51° 219° (SW) 1,899 10.9 46.1°
Drops below altitude 10° 15:22:57 10° 147° (SSE) 3,691 10.9 44.5°
Sets 15:26:04 0° 143° (SE) 4,659 11.3 44.0°
